Weather Service Report


312 
ASUS44 KMEG 311800
RWRTN 
TENNESSEE HOURLY STATE WEATHER ROUNDUP
NATIONAL WEATHER SERVICE MEMPHIS TN
100 PM CDT MON AUG 31 2015

TNZ002-004-019-021-049-052-054-088>092-311900-
WEST TENNESSEE
  
CITY           SKY/WX    TMP DP  RH WIND       PRES   REMARKS
MEMPHIS INTL   MOSUNNY   89  69  51 VRB5      30.08F HX  93           
NWS MEMPHIS      N/A     87 N/A N/A MISG        N/A                   
JACKSON        SUNNY     83  68  60 CALM      30.11F                  
DYERSBURG      SUNNY     84  70  61 NE3       30.11S                  
UNION CITY     SUNNY     84  68  58 SE5       30.10F                  
PARIS          SUNNY     81  66  61 CALM      30.13F                  
LEXINGTON      PTSUNNY   82  68  61 N5        30.12S                  
$$

TNZ008-025-027-028-033-062-065-066-311900-
NORTH MIDDLE TENNESSEE
  
CITY           SKY/WX    TMP DP  RH WIND       PRES   REMARKS
NASHVILLE      MOSUNNY   84  63  49 SE6       30.14F                  
CLARKSVILLE    SUNNY     85  64  49 S7        30.13F                  
COOKEVILLE     MOSUNNY   82  70  65 CALM      30.15S                  
CROSSVILLE     PTSUNNY   79  61  53 VRB3      30.19F                  
$$

TNZ061-075-076-078-094-096-097-311900-
SOUTH MIDDLE TENNESSEE
  
CITY           SKY/WX    TMP DP  RH WIND       PRES   REMARKS
FAYETTEVILLE     N/A     77  64  65 E5        30.14F                  
TULLAHOMA      PTSUNNY   79  64  61 CALM      30.16F                  
WINCHESTER     PTSUNNY   79  66  65 CALM      30.15S                  
SHELBYVILLE    MOSUNNY   82  68  61 VRB5      30.15F                  
$$

TNZ017-018-042-046-047-311900-
NORTHEAST TENNESSEE
  
CITY           SKY/WX    TMP DP  RH WIND       PRES   REMARKS
TRI CITIES     MOSUNNY   80  62  54 N3        30.15F                  
$$

TNZ012-013-036-069-073-074-311900-
CENTRAL EAST TENNESSEE
  
CITY           SKY/WX    TMP DP  RH WIND       PRES   REMARKS
KNOXVILLE      NOT AVBL                                               
OAK RIDGE      SUNNY     84  64  50 CALM      30.15F                  
GATLINBURG     MOCLDY    81  61  50 CALM      30.13F                  
$$

TNZ083-085-099-311900-
SOUTHEAST TENNESSEE
  
CITY           SKY/WX    TMP DP  RH WIND       PRES   REMARKS
CHATTANOOGA    PTSUNNY   81  65  58 E6        30.13F                  
$$

SKY/WX REPORTED AS FAIR MEANS FEW OR NO CLOUDS BELOW
12 THOUSAND FEET.



314 
ASUS44 KMEG 311800
RWRMEG
MEMPHIS CWA HOURLY WEATHER ROUNDUP
NATIONAL WEATHER SERVICE MEMPHIS TN
100 PM CDT MON AUG 31 2015

...WEST TENNESSEE...
  
CITY           SKY/WX    TMP DP  RH WIND       PRES   REMARKS
MEMPHIS INTL   MOSUNNY   89  69  51 VRB5      30.08F HX  93           
6HR MIN TEMP:  71; 6HR MAX TEMP:  90;                                

NWS MEMPHIS      N/A     87 N/A N/A MISG        N/A                   
JACKSON        SUNNY     83  68  60 CALM      30.11F                  
6HR MIN TEMP:  64; 6HR MAX TEMP:  83;                                

LEXINGTON      PTSUNNY   82  68  61 N5        30.12S                  
DYERSBURG      SUNNY     84  70  61 NE3       30.11S                  
UNION CITY     SUNNY     84  68  58 SE5       30.10F                  
PARIS          SUNNY     81  66  61 CALM      30.13F                  


...EASTERN ARKANSAS...
  
CITY           SKY/WX    TMP DP  RH WIND       PRES   REMARKS
JONESBORO      SUNNY     85  71  63 E5        30.07F HX  90           
6HR MIN TEMP:  67; 6HR MAX TEMP:  85;                                

WEST MEMPHIS   SUNNY     87  71  58 SE3       30.06F HX  93           
6HR MIN TEMP:  68; 6HR MAX TEMP:  87;                                

BATESVILLE     SUNNY     88  72  58 CALM      30.07F HX  94           
6HR MIN TEMP:  70; 6HR MAX TEMP:  90;                                

WALNUT RIDGE   SUNNY     84  72  65 S7        30.07F                  
6HR MIN TEMP:  68; 6HR MAX TEMP:  84;                                

BLYTHEVILLE    SUNNY     86  72  62 CALM      30.09F HX  92           
6HR MIN TEMP:  69; 6HR MAX TEMP:  86;                                

SEARCY         SUNNY     90  73  57 E7        30.07F HX  98           
6HR MIN TEMP:  70; 6HR MAX TEMP:  90;                                

STUTTGART      SUNNY     88  70  55 E6        30.06F HX  92           
6HR MIN TEMP:  72; 6HR MAX TEMP:  88;                                

PINE BLUFF     SUNNY     89  68  49 VRB3      30.05F HX  93           
6HR MIN TEMP:  69; 6HR MAX TEMP:  90;                                

MONTICELLO     SUNNY     93  66  40 NW7       30.04F HX  96           
6HR MIN TEMP:  70; 6HR MAX TEMP:  93;                                



...NORTH MISSISSIPPI...
  
CITY           SKY/WX    TMP DP  RH WIND       PRES   REMARKS
TUPELO         MOSUNNY   86  67  52 E5        30.10F                  
6HR MIN TEMP:  66; 6HR MAX TEMP:  86;                                

OLIVE BRANCH   MOSUNNY   86  72  62 CALM      30.09F HX  92           
TUNICA         SUNNY     86  70  58 CALM      30.08F HX  90           
GREENWOOD      SUNNY     91  67  44 NE5       30.06F HX  94           
6HR MIN TEMP:  70; 6HR MAX TEMP:  91;                                

COLUMBUS       MOSUNNY   84  70  63 NW6       30.09F                  
6HR MIN TEMP:  64; 6HR MAX TEMP:  84; 6HR PCP: TRACE;                

STARKVILLE     FAIR      86  68  54 W3        30.09F                  
GOLDEN TRIANGL MOSUNNY   88  68  51 N9        30.09F HX  91           


...SOUTHEAST MISSOURI...
  
CITY           SKY/WX    TMP DP  RH WIND       PRES   REMARKS
WEST PLAINS    SUNNY     85  69  58 S7        30.11F                  
6HR MIN TEMP:  70; 6HR MAX TEMP:  85;                                

POPLAR BLUFF   SUNNY     85  73  67 CALM      30.07F HX  91           
6HR MIN TEMP:  72; 6HR MAX TEMP:  85;                                

CAPE GIRARDEAU SUNNY     85  71  63 VRB5      30.08F HX  90           
6HR MIN TEMP:  68; 6HR MAX TEMP:  85;                                



...NORTHWEST ALABAMA...
  
CITY           SKY/WX    TMP DP  RH WIND       PRES   REMARKS
MUSCLE SHOALS  CLOUDY    78  67  68 VRB3      30.14F                  
6HR MIN TEMP:  65; 6HR MAX TEMP:  78;                                



...MIDDLE TENNESSEE...
  
CITY           SKY/WX    TMP DP  RH WIND       PRES   REMARKS
NASHVILLE      MOSUNNY   84  63  49 SE6       30.14F                  
6HR MIN TEMP:  67; 6HR MAX TEMP:  85;                                

CLARKSVILLE    SUNNY     85  64  49 S7        30.13F                  
6HR MIN TEMP:  63; 6HR MAX TEMP:  85;                                



...WESTERN KENTUCKY...
  
CITY           SKY/WX    TMP DP  RH WIND       PRES   REMARKS
PADUCAH        SUNNY     86  68  54 E6        30.10F                  
6HR MIN TEMP:  65; 6HR MAX TEMP:  86;                                

FORT CAMPBELL  SUNNY     82  65  57 CALM      30.12F                  
6HR MIN TEMP:  65; 6HR MAX TEMP:  83; 6HR PCP: TRACE;                



...CENTRAL ARKANSAS...
  
CITY           SKY/WX    TMP DP  RH WIND       PRES   REMARKS
LITTLE ROCK    MOSUNNY   93  68  43 E7        30.05F HX  97           
6HR MIN TEMP:  71; 6HR MAX TEMP:  93;                                



SKY/WX REPORTED AS FAIR MEANS FEW OR NO CLOUDS BELOW
12 THOUSAND FEET.


Return to Home page


Western Regional Climate Center, wrcc@dri.edu